Location: Kerguescan
(47.9462°N, 3.3340°W)
Time: 16:58:35
(UTC+00:00)

Daily predictions for brighter satellites

Satellite Brightness Start Highest point End
(mag) Time Altitude Azimuth Time Altitude Azimuth Time Altitude Azimuth
STARLINK-1119 3.8 19:11:09 10° WNW 19:15:17 72° SSW 19:19:24 10° SE
STARLINK-1240 4.3 19:12:09 10° W 19:16:14 56° NNW 19:20:20 10° ENE
SeaSat 1 2.8 19:13:24 10° NNE 19:18:21 74° WNW 19:23:16 10° SW
SJ-6B 3.6 19:15:51 10° SE 19:19:37 36° ENE 19:23:26 10° N
Meteor 1-22 Rocket 4.4 19:14:46 10° SSW 19:20:03 75° WNW 19:25:23 10° N
STARLINK-1114 3.9 19:16:08 10° WNW 19:20:15 68° SSW 19:24:22 10° SE
STARLINK-1216 4.3 19:17:10 10° W 19:21:14 53° NNW 19:25:19 10° ENE
CZ-4C R/B 4.5 19:16:55 10° WNW 19:21:22 21° N 19:26:25 10° NE
SL-14 R/B 3.7 19:18:43 10° NNW 19:22:45 71° W 19:26:44 10° S
SL-16 R/B 2.4 19:18:22 10° SSW 19:24:01 80° WNW 19:29:44 10° NNE
STARLINK-1130 (DARKSAT) 4.0 19:21:06 10° WNW 19:25:13 63° SSW 19:29:18 10° SE
STARLINK-1237 4.4 19:22:11 10° W 19:26:14 52° NNW 19:30:18 10° ENE
CZ-2C R/B 3.0 19:24:20 10° SSE 19:29:12 61° ENE 19:33:55 10° N
Cosmos 1758 3.3 19:25:52 10° S 19:29:56 68° E 19:34:01 10° NNE
STARLINK-1084 4.1 19:26:05 10° WNW 19:30:10 59° SW 19:34:15 10° SE
MOS 1 4.3 19:24:44 10° SSE 19:30:19 65° ENE 19:35:56 10° N
STARLINK-1233 4.4 19:27:58 10° WNW 19:30:51 32° N 19:33:45 10° ENE
STARLINK-1202 4.4 19:27:11 10° W 19:31:14 50° NNW 19:35:17 10° ENE
STARLINK-1212 4.4 19:28:26 10° WNW 19:31:18 32° N 19:34:11 10° ENE
STARLINK-1105 4.4 19:28:53 10° WNW 19:31:46 32° N 19:34:40 10° ENE
STARLINK-1206 4.4 19:29:22 10° WNW 19:32:14 32° N 19:35:05 10° ENE
STARLINK-1203 4.5 19:28:34 10° W 19:32:34 48° NNW 19:36:35 10° ENE
STARLINK-1247 4.4 19:29:49 10° WNW 19:32:41 32° N 19:35:33 10° ENE
STARLINK-1227 4.4 19:30:14 10° WNW 19:33:06 32° N 19:36:00 10° ENE
STARLINK-1218 4.4 19:30:44 10° WNW 19:33:36 32° N 19:36:28 10° ENE
STARLINK-1226 4.4 19:31:10 10° WNW 19:34:02 32° N 19:36:54 10° ENE
STARLINK-1254 4.4 19:31:36 10° WNW 19:34:29 32° N 19:37:22 10° ENE
STARLINK-1215 4.4 19:32:06 10° WNW 19:34:57 32° N 19:37:49 10° ENE
STARLINK-1098 4.2 19:31:06 10° WNW 19:35:09 54° SW 19:39:12 10° SE
Cosmos 2084 Rocket 3.8 19:30:43 10° NW 19:35:10 70° SW 19:39:37 10° SSE
CZ-2C R/B 3.7 19:31:17 10° NE 19:35:15 22° E 19:39:11 10° SE
Cosmos 1656 Rocket 4.4 19:30:08 10° NNW 19:35:24 37° NE 19:40:14 12° ESE
Cosmos 2228 4.3 19:32:09 10° SE 19:35:24 21° E 19:38:41 10° NE
STARLINK-1231 4.4 19:32:34 10° WNW 19:35:25 32° N 19:38:16 10° ENE
STARLINK-1232 4.4 19:33:27 10° WNW 19:36:19 31° N 19:39:10 10° ENE
CZ-4 R/B 4.2 19:33:49 10° SW 19:36:40 20° W 19:39:31 10° NW
STARLINK-1217 4.4 19:33:55 10° WNW 19:36:46 31° N 19:39:37 10° ENE
Meteor 1-21 Rocket 4.2 19:31:28 10° N 19:36:59 62° ENE 19:42:27 10° SSE
STARLINK-1208 4.4 19:34:19 10° WNW 19:37:11 32° N 19:40:05 10° ENE
Cosmos 1992 Rocket 4.0 19:32:04 10° NNW 19:37:17 67° ENE 19:42:27 10° SSE
STARLINK-1229 4.4 19:34:48 10° WNW 19:37:39 31° N 19:40:30 10° ENE
STARLINK-1271 4.4 19:35:16 10° WNW 19:38:07 31° N 19:40:59 10° ENE
STARLINK-1270 4.4 19:35:43 10° WNW 19:38:34 31° N 19:41:26 10° ENE
STARLINK-1154 4.4 19:36:10 10° WNW 19:39:01 31° N 19:41:52 10° ENE
STARLINK-1197 4.4 19:37:05 10° WNW 19:39:55 31° N 19:42:46 10° ENE
STARLINK-1123 4.3 19:36:06 10° WNW 19:40:07 50° SW 19:44:05 10° SE
STARLINK-1189 4.4 19:37:33 10° WNW 19:40:23 31° N 19:43:14 10° ENE
STARLINK-1198 4.4 19:37:59 10° WNW 19:40:50 31° N 19:43:40 10° ENE
STARLINK-1188 4.4 19:38:26 10° WNW 19:41:17 31° N 19:44:08 10° ENE
Meteor 2-15 Rocket 4.4 19:35:57 10° S 19:41:58 70° E 19:48:01 10° NNE
STARLINK-1235 4.4 19:39:09 10° WNW 19:42:01 31° N 19:44:53 10° ENE
ARGOS 3.1 19:36:51 10° SSE 19:42:14 76° ENE 19:47:38 10° NNW
STARLINK-1187 4.4 19:39:27 10° WNW 19:42:20 31° N 19:45:13 10° ENE
STARLINK-1199 4.4 19:40:23 10° WNW 19:43:15 31° N 19:46:08 10° ENE
BREEZE-M DEB (TANK) 4.0 19:35:09 10° W 19:43:20 79° N 19:45:58 14° E
SL-4 R/B 3.3 19:41:35 10° SSE 19:43:25 14° SE 19:43:45 14° SE
COSMOS 2455 4.3 19:38:46 10° NNW 19:43:38 24° NE 19:48:18 11° E
STARLINK-1191 4.4 19:40:51 10° WNW 19:43:43 31° N 19:46:35 10° ENE
STARLINK-1201 4.5 19:40:59 10° WNW 19:43:59 33° N 19:47:00 10° ENE
STARLINK-1210 4.4 19:41:17 10° WNW 19:44:09 31° N 19:47:02 10° ENE
MetOp-A 4.5 19:39:22 10° SE 19:44:27 47° ENE 19:49:35 10° N
STARLINK-1221 4.4 19:41:45 10° WNW 19:44:37 31° N 19:47:29 10° ENE
STARLINK-1219 4.4 19:42:12 10° WNW 19:45:04 31° N 19:47:56 10° ENE
STARLINK-1097 4.4 19:41:05 10° WNW 19:45:04 47° SW 19:48:52 11° SE
STARLINK-1222 4.4 19:42:39 10° WNW 19:45:31 31° N 19:48:23 10° ENE
STARLINK-1211 4.4 19:43:07 10° WNW 19:45:58 31° N 19:48:50 10° ENE
STARLINK-1214 4.4 19:43:34 10° WNW 19:46:26 31° N 19:49:18 10° ENE
Cosmos 1603 3.9 19:41:05 10° S 19:46:28 48° ESE 19:51:51 10° NE
STARLINK-1234 4.4 19:44:07 10° WNW 19:46:51 29° N 19:49:35 10° ENE
STARLINK-1228 4.4 19:44:18 10° WNW 19:46:53 28° N 19:49:28 10° ENE
STARLINK-1245 4.4 19:44:03 10° WNW 19:46:53 31° N 19:49:43 10° ENE
USA 186 1.9 19:43:54 10° SSE 19:47:17 86° W 19:50:35 10° NNW
STARLINK-1238 4.4 19:44:28 10° WNW 19:47:20 31° N 19:50:12 10° ENE
Cosmos 1726 2.6 19:44:07 10° SSE 19:47:36 38° E 19:51:07 10° NNE
STARLINK-1205 4.4 19:45:25 10° WNW 19:48:15 31° N 19:51:06 10° ENE
STARLINK-1204 4.4 19:45:52 10° WNW 19:48:42 31° N 19:51:32 10° ENE
STARLINK-1099 4.5 19:46:06 10° WNW 19:50:02 43° SW 19:53:40 12° SSE
H-2A R/B 2.2 19:45:48 10° S 19:51:04 79° WSW 19:56:14 10° NNW
Meteor 1-16 Rocket 4.4 19:48:36 10° SSE 19:53:41 45° E 19:58:55 10° NNE
Resurs 1-3 4.0 19:51:23 12° SE 19:55:12 45° ENE 19:59:23 10° N
STARLINK-1209 4.3 19:54:34 10° WNW 19:57:12 29° N 19:59:26 13° ENE
Cosmos 2184 Rocket 4.0 19:51:06 10° N 19:57:23 65° ENE 20:03:34 10° SSE
Meteor 2-10 4.1 19:57:52 10° S 20:03:12 64° E 20:08:45 10° NNE
Cosmos 1703 3.7 20:00:41 10° N 20:04:29 43° ENE 20:06:52 20° SE
Cosmos 1461 4.4 20:01:36 10° NNW 20:05:25 27° NE 20:07:55 17° E
Cosmos 292 Rocket 4.2 20:02:10 10° NNW 20:06:55 62° WSW 20:11:39 10° S
Cosmos 1953 2.3 20:03:26 10° S 20:07:24 86° W 20:11:25 10° N
FREGAT/IRIS 4.1 20:07:00 10° SSW 20:09:30 33° W 20:12:01 10° NNW
Cosmos 2251 Rocket 3.6 20:04:14 10° SSW 20:09:36 90° W 20:15:02 10° NNE
Cosmos 967 Rocket 4.5 20:03:16 10° SSW 20:09:39 68° ESE 20:16:06 10° NE
DMSP B5D2-2 4.2 20:04:54 10° NNE 20:09:58 49° E 20:15:01 10° S
Resurs 01 Rocket 1.9 20:12:29 22° SE 20:15:07 50° ENE 20:19:24 10° N
Cosmos 1437 2.6 20:14:54 10° NNW 20:17:56 77° W 20:19:44 22° S
Cosmos 2154 Rocket 4.1 20:12:56 10° N 20:19:15 62° ENE 20:24:20 16° SSE
Cosmos 2058 Rocket 3.8 20:18:19 25° SE 20:20:04 34° E 20:24:10 10° NNE
NOSS 3-4 (A) 4.0 20:13:15 10° NW 20:20:05 62° NE 20:24:57 23° ESE
NOSS 3-4 (C) 4.0 20:13:22 10° NW 20:20:11 62° NE 20:25:02 23° ESE
Cosmos 2369 Rocket 2.7 20:16:10 10° NW 20:21:46 57° WSW 20:27:16 10° S
SL-8 R/B 4.2 20:20:58 10° W 20:25:34 49° SSW 20:27:50 27° SE
CZ-2C R/B 3.7 20:21:24 10° NNE 20:26:11 90° NW 20:30:50 10° SSW
Nadezhda 1 Rocket 4.0 20:20:51 10° S 20:27:10 65° E 20:33:28 10° NNE
Cosmos 1943 Rocket 3.4 20:22:15 10° NW 20:27:22 39° WSW 20:32:31 10° S
NOSS 3-3 (A) 4.0 20:23:47 10° SW 20:29:41 87° NW 20:36:25 10° NE
NOSS 3-3 (C) 3.9 20:23:53 10° SW 20:29:47 88° NW 20:36:31 10° NE
Cosmos 1908 3.1 20:27:25 21° S 20:29:52 62° E 20:33:43 10° NNE
Meteor 1-11 4.2 20:24:57 10° N 20:30:44 68° ENE 20:34:22 23° SSE
STARLINK-67 3.6 20:29:47 10° NW 20:32:11 32° NNE 20:32:21 32° NNE
Abrixas rocket 1.9 20:29:32 10° W 20:32:30 81° N 20:32:54 63° ENE
Cosmos 1726 Rocket 3.4 20:34:22 11° S 20:38:37 80° E 20:43:05 10° NNE
ISS -1.8 20:36:53 10° W 20:39:27 20° SW 20:40:16 19° SSW
SPOT 5 4.2 20:39:20 19° ENE 20:39:29 19° ENE 20:42:34 10° NNE
Cosmos 1190 Rocket 4.3 20:40:52 26° SSE 20:43:28 45° ESE 20:48:31 10° NNE
Cosmos 1825 Rocket 4.3 20:39:13 10° NNW 20:43:32 52° W 20:47:11 14° SSW
Cosmos 1943 3.3 20:41:02 10° SSW 20:46:42 78° WNW 20:52:25 10° NNE
Spot 2 Rocket 3.6 20:46:22 38° SE 20:48:07 58° ENE 20:53:09 10° N
Aureole 1 Rocket 4.1 20:42:31 10° S 20:50:17 69° ESE 20:56:29 10° NNE
USA 234 3.2 20:45:43 10° ENE 20:52:13 65° SE 20:58:42 10° SW
Cosmos 1140 Rocket 3.7 20:51:23 41° SE 20:52:18 46° ESE 20:57:15 10° NNE
ATLAS 2AS CENTAUR R/B 2.8 20:45:01 10° NW 20:52:44 90° NE 20:56:14 34° SE
Iridium 4 Rocket 4.3 20:53:48 10° NNE 20:56:43 27° ENE 20:56:43 27° ENE
MetOp-B 4.0 20:57:15 38° SSE 20:59:23 82° ENE 21:04:48 10° NNW
MOS 1 Rocket 3.9 20:56:30 10° N 21:01:47 70° WNW 21:07:11 10° SSW
Cosmos 1953 Rocket 4.4 20:58:14 10° NNW 21:02:33 50° W 21:05:05 23° SSW
STARLINK-1233 4.2 21:04:10 10° WNW 21:06:45 37° N 21:06:45 37° N
Terra 3.0 21:07:36 28° ENE 21:07:36 28° ENE 21:11:27 10° N
STARLINK-1212 4.2 21:04:37 10° WNW 21:07:10 36° N 21:07:10 36° N
STARLINK-1105 4.2 21:05:04 10° WNW 21:07:38 37° N 21:07:38 37° N
STARLINK-1206 4.3 21:05:33 10° WNW 21:08:02 36° NNW 21:08:02 36° NNW
STARLINK-1247 4.3 21:06:00 10° WNW 21:08:28 36° NNW 21:08:28 36° NNW
STARLINK-1227 4.3 21:06:25 10° WNW 21:08:54 36° NNW 21:08:54 36° NNW
Cosmos 921 Rocket 2.8 21:05:24 10° NNW 21:09:36 77° ENE 21:09:38 77° ENE
STARLINK-1218 4.3 21:06:55 10° WNW 21:09:20 35° NNW 21:09:20 35° NNW
STARLINK-1226 4.3 21:07:20 10° WNW 21:09:46 36° NNW 21:09:46 36° NNW
STARLINK-1254 4.3 21:07:45 10° WNW 21:10:13 36° NNW 21:10:13 36° NNW
Cosmos 1818 3.7 21:05:38 10° SW 21:11:03 73° NW 21:16:32 10° NE
STARLINK-1215 4.3 21:08:15 10° WNW 21:10:38 35° NNW 21:10:38 35° NNW
Cosmos 676 Rocket 4.4 21:12:05 44° E 21:12:05 44° E 21:16:22 10° NNE
STARLINK-1231 4.4 21:08:44 10° WNW 21:11:05 35° NNW 21:11:05 35° NNW
CZ-4C R/B 4.3 21:06:55 10° NW 21:12:14 25° NNE 21:17:33 12° ENE
STARLINK-1203 4.5 21:08:36 10° WNW 21:12:32 42° N 21:13:15 38° NE
STARLINK-1232 4.4 21:09:37 10° WNW 21:11:56 35° NNW 21:11:56 35° NNW
Cosmos 2228 4.3 21:08:40 10° SW 21:12:42 39° WNW 21:16:47 10° N
STARLINK-1217 4.4 21:10:04 10° WNW 21:12:23 35° NNW 21:12:23 35° NNW
STARLINK-1208 4.4 21:10:28 10° WNW 21:12:49 35° NNW 21:12:49 35° NNW
Cosmos 614 Rocket 4.1 21:08:33 10° SSW 21:13:47 76° WNW 21:19:02 10° NNE
STARLINK-1229 4.4 21:10:57 10° WNW 21:13:13 34° NNW 21:13:13 34° NNW
STARLINK-1271 4.4 21:11:25 10° WNW 21:13:41 34° NNW 21:13:41 34° NNW
STARLINK-1270 4.5 21:11:52 10° WNW 21:14:06 34° NNW 21:14:06 34° NNW
Cosmos 407 Rocket 3.4 21:10:00 10° SSW 21:15:09 86° WNW 21:20:20 10° NNE
STARLINK-1154 4.5 21:12:19 10° WNW 21:14:32 34° NNW 21:14:32 34° NNW
BREEZE-M DEB (TANK) 3.3 21:12:35 10° W 21:14:47 31° W 21:14:47 31° W
CZ-2C R/B 3.1 21:10:51 10° N 21:15:55 56° WNW 21:20:58 10° SSW
IGS 5A 3.5 21:16:12 68° NE 21:16:12 68° NE 21:20:07 10° N
SAR-Lupe-2 3.9 21:13:12 10° N 21:16:29 63° NW 21:16:29 63° NW
SPOT 1/Viking Rocket 3.5 21:17:02 60° ESE 21:17:46 69° ENE 21:22:59 10° N
STARLINK-1246 4.4 21:17:21 10° WNW 21:21:20 43° N 21:21:45 42° NNE
SL-4 R/B 4.2 21:19:02 10° WSW 21:19:26 13° WSW 21:19:26 13° WSW
Cosmos 1340 Rocket 3.4 21:23:17 44° WSW 21:24:12 55° WNW 21:28:12 10° N
STARLINK-1224 4.4 21:22:24 10° WNW 21:26:23 44° N 21:26:34 44° NNE
ERS-1 Rocket 2.9 21:27:58 66° E 21:28:04 66° ENE 21:33:04 10° N
COSMOS 2455 2.7 21:24:21 10° NNW 21:30:26 87° ENE 21:31:27 64° SE
Cosmos 2341 Rocket 4.2 21:24:40 10° NNW 21:31:02 73° W 21:33:32 39° S
STARLINK-1225 4.4 21:27:21 10° WNW 21:31:19 45° N 21:31:19 45° N
Cosmos 1980 Rocket 4.2 21:28:57 10° N 21:32:21 16° NE 21:33:52 15° NE
Cosmos 1892 4.3 21:29:41 10° N 21:31:50 28° NNE 21:31:50 28° NNE
STARLINK-1230 4.5 21:32:21 10° WNW 21:36:07 45° N 21:36:07 45° N
Cosmos 1954 Rocket 4.0 21:37:55 65° ENE 21:37:55 65° ENE 21:42:30 10° NNE
ATLAS CENTAUR R/B 3.8 21:40:09 10° N 21:42:11 13° NNE 21:42:19 13° NNE
Cosmos 1461 3.6 21:40:23 10° NW 21:44:19 55° W 21:44:19 55° W
Cosmos 1076 Rocket 4.3 21:44:48 10° N 21:47:57 49° N 21:47:57 49° N
Cosmos 1656 4.3 21:44:58 10° NNW 21:50:24 45° NE 21:50:24 45° NE
Cosmos 2218 Rocket 3.9 21:45:30 10° N 21:51:42 80° W 21:52:40 65° SSW
Resurs 01 Rocket 3.9 21:50:02 15° WSW 21:51:54 19° W 21:55:03 10° NW
Cosmos 1300 4.4 21:58:40 32° NW 21:58:40 32° NW 22:01:19 10° N
ATLAS 5 CENTAUR R/B 3.8 22:02:16 18° NE 22:02:16 18° NE 22:03:37 10° NE
In-Cosmos 22 Rocket 4.4 21:55:47 10° NNW 22:01:36 69° W 22:01:59 67° SW
USA 32 4.4 21:56:21 10° N 22:00:38 55° NNE 22:00:38 55° NNE
Cosmos 2181 Rocket 4.3 22:03:27 44° SW 22:05:21 63° WNW 22:11:31 10° N
Meteor 2-1 Rocket 4.3 22:08:05 81° N 22:08:05 81° N 22:13:44 10° NNE
Cosmos 1763 Rocket 3.9 22:04:35 10° NNW 22:08:49 56° N 22:08:49 56° N
SPOT 5 3.9 22:18:33 38° NW 22:18:33 38° NW 22:21:30 10° NNW
Cosmos 540 Rocket 4.5 22:25:48 10° NNW 22:29:24 41° N 22:29:24 41° N
Cosmos 2369 4.4 22:26:57 10° NNW 22:31:29 47° NNE 22:31:29 47° NNE
USA 234 3.8 22:28:50 10° NE 22:35:12 57° NNW 22:41:34 10° W
Nadezhda 3 Rocket 4.2 22:37:09 64° NNE 22:37:09 64° NNE 22:42:26 10° N
ATLAS 2AS CENTAUR R/B 4.3 22:37:14 10° WNW 22:42:40 23° WSW 22:43:41 22° WSW
Cosmos 841 Rocket 4.5 22:38:06 10° NNW 22:41:45 45° N 22:41:45 45° N
Terra 3.4 22:46:29 32° WNW 22:46:29 32° WNW 22:49:31 10° NNW
Cosmos 1697 Rocket 3.4 22:44:27 10° NNW 22:48:42 50° N 22:48:42 50° N
Mayak 1.2 22:48:43 10° N 22:49:57 19° N 22:49:57 19° N
SL-16 R/B 4.1 22:56:05 10° N 23:00:22 21° NE 23:00:33 21° NE
CZ-4C R/B 3.2 22:55:25 10° NW 23:02:15 56° NE 23:02:43 55° NE
Cosmos 2322 Rocket 4.1 23:07:25 10° N 23:11:43 21° NE 23:11:48 21° NE
Cosmos 1980 Rocket 3.3 23:11:54 10° NNW 23:15:38 41° N 23:15:38 41° N
ATLAS CENTAUR R/B 4.4 23:18:06 10° NNW 23:18:30 12° NNW 23:18:30 12° NNW
Cosmos 2344 4.3 23:27:03 10° NW 23:36:30 83° NE 23:38:51 64° SE
Cosmos 2082 Rocket 3.8 23:44:34 29° NNE 23:44:34 29° NNE 23:47:14 10° NNE
ATLAS 5 CENTAUR R/B 4.1 23:43:42 20° NW 23:44:23 20° NNW 23:48:08 10° NNE
